Theta_e
285 284 284 283 283 283 283 283 282 281 282 283 283 283 282 282 282 282 283 283 283 284 285 287 289 290 290 291 292 296 299 300 301 302 310 315 319 318
284 284 283 282 282 282 282 281 281 281 282 282 282 281 280 281 281 281 282 282 283 283 284 285 287 288 289 290 290 293 296 298 300 301 302 307 314 319
284 283 282 282 282 282 281 281 281 281 281 281 280 280 280 280 280 280 281 281 282 282 283 284 285 287 288 289 290 290 293 296 298 300 301 302 311 315
283 282 282 281 281 281 281 280 280 280 279 279 279 279 279 278 279 279 279 279 280 281 282 283 284 285 287 288 289 290 290 294 295 298 300 301 302 310
282 281 281 281 280 280 280 280 279 279 279 279 278 278 278 278 279 278 278 279 280 281 282 282 283 284 285 286 287 288 289 290 292 295 298 300 302 304
281 280 280 280 280 279 279 278 278 278 278 278 277 277 277 277 277 277 278 278 279 279 281 281 282 282 283 285 286 287 288 289 290 293 295 298 300 302
280 280 280 279 279 278 278 278 278 278 277 277 276 276 276 276 276 276 276 277 277 278 279 279 280 282 283 284 285 286 287 288 289 291 293 295 298 301
279 279 279 279 279 278 277 278 277 277 276 275 275 275 275 275 275 275 275 274 275 277 277 279 279 280 281 282 284 285 286 287 288 289 292 294 297 299
279 278 278 278 277 277 277 277 276 276 276 275 275 275 274 274 274 274 274 274 274 276 276 276 277 279 280 281 283 284 286 287 288 289 290 293 295 298
278 278 277 277 277 277 276 276 276 275 275 275 274 274 274 273 273 273 273 273 275 277 276 273 276 278 278 280 282 284 285 286 287 288 289 292 294 296
278 277 277 276 276 275 275 275 275 274 275 274 274 274 274 274 274 272 274 272 273 275 277 273 275 275 277 280 282 282 283 285 286 285 288 291 295 296
277 277 276 275 274 274 274 274 274 274 273 273 274 275 275 274 274 273 272 271 272 271 274 273 274 273 274 276 281 281 281 284 285 286 288 291 293 295
276 276 275 275 274 273 273 273 273 273 273 272 273 274 274 273 273 273 273 271 271 272 275 271 272 273 272 274 276 278 280 283 284 286 288 290 293 295
276 275 274 273 273 273 272 272 271 272 272 272 272 273 272 272 273 273 273 273 272 273 275 273 271 272 273 273 274 278 280 283 284 286 288 290 294 296
275 274 273 273 273 273 272 272 271 271 271 270 270 271 271 271 271 272 273 273 273 275 275 274 273 273 273 273 274 276 279 283 285 288 291 291 294 297
274 274 273 272 273 272 272 271 271 270 269 269 269 269 270 270 271 271 271 272 272 275 276 275 273 273 273 275 274 277 279 277 284 286 288 290 292 296
273 272 272 272 272 271 271 270 270 269 269 268 268 268 268 269 270 270 270 271 270 271 274 276 276 274 274 273 275 279 280 282 284 286 287 288 291 296
272 272 271 270 270 270 269 269 269 268 268 267 267 267 267 267 268 269 269 269 269 271 271 274 274 274 276 277 278 279 280 281 284 285 285 286 291 297
272 271 271 270 269 269 268 268 267 267 267 267 267 267 266 267 267 268 268 269 269 270 271 272 271 270 271 272 276 278 279 281 284 285 286 287 289 296
271 271 270 270 269 269 268 267 267 267 267 267 267 266 266 266 266 267 268 268 268 270 271 273 272 271 270 271 272 282 282 279 283 286 286 287 290 294
271 271 270 270 269 268 268 267 267 267 266 266 266 266 265 265 266 266 267 268 268 269 269 272 274 274 273 273 273 277 284 286 286 286 286 288 290 293
271 270 270 269 268 268 267 267 267 266 266 266 266 265 265 265 266 266 267 267 268 269 269 271 274 275 275 273 274 276 280 285 286 286 287 289 291 295
271 270 269 268 268 267 267 266 266 266 266 265 265 265 265 266 266 266 266 267 268 269 269 271 273 274 275 275 275 277 280 284 286 286 288 290 292 294
Wind_Speed
12 13 13 10 10 11 11 14 19 15 25 24 29 36 41 40 36 36 35 33 31 30 26 22 24 27 31 30 30 32 34 37 39 40 45 46 53 56
12 13 11 11 11 13 14 16 16 18 19 28 32 40 40 40 39 40 38 34 33 32 32 27 23 26 30 33 33 32 35 35 41 42 43 46 51 54
13 12 11 13 14 15 16 17 18 19 23 33 36 39 39 40 44 41 39 38 40 35 32 32 28 26 29 33 35 33 34 36 38 43 43 46 50 58
13 13 14 14 16 16 17 18 19 20 28 36 38 37 38 42 42 41 39 45 43 39 36 34 33 30 28 31 34 35 33 37 36 41 44 46 49 51
14 14 15 17 18 18 19 19 20 22 26 31 35 39 40 42 43 40 46 45 43 41 39 36 34 32 29 31 33 36 37 37 37 38 43 47 47 50
14 15 15 17 18 20 19 19 21 25 25 34 38 39 40 38 38 47 50 45 47 44 42 39 35 39 35 32 33 35 36 37 35 34 40 44 48 49
15 15 16 16 17 17 17 19 20 23 31 35 37 39 36 35 45 44 45 49 45 47 45 42 47 42 38 33 33 33 34 35 35 32 36 39 46 51
15 16 15 16 16 15 13 17 18 28 32 32 33 34 31 41 40 38 41 42 47 44 46 53 47 47 43 40 37 35 34 32 31 30 35 40 46 51
15 16 16 16 16 15 18 20 25 25 23 25 29 31 39 36 35 38 39 41 42 49 48 53 47 48 44 43 39 36 32 32 32 33 33 39 45 50
14 16 17 17 15 17 21 26 26 24 23 22 28 32 31 30 30 33 36 40 43 44 42 45 47 45 46 46 41 34 28 23 19 21 26 33 41 49
13 15 17 16 17 17 22 27 27 24 27 28 28 28 28 27 27 29 33 36 44 45 44 33 36 50 49 47 35 21 16 14 21 34 28 31 36 43
15 16 16 17 16 17 21 26 27 27 33 33 30 27 27 28 27 28 30 32 37 41 30 38 45 38 31 38 16 38 41 34 32 29 27 28 32 37
15 17 18 19 19 19 20 24 23 27 31 31 32 31 30 31 32 31 30 30 33 39 42 35 41 41 31 42 47 46 44 40 36 33 28 26 30 34
14 18 21 22 22 23 23 24 21 27 27 30 32 32 33 34 35 34 33 32 31 35 37 31 35 35 39 44 47 47 45 42 39 36 28 24 25 32
15 19 22 22 23 23 23 24 25 27 27 30 32 33 32 35 37 36 36 36 36 34 34 31 29 32 33 40 46 47 46 43 38 20 13 15 20 27
18 20 21 22 22 25 25 26 26 26 26 30 32 33 33 37 38 37 40 41 42 41 36 33 34 32 35 35 38 45 41 34 37 33 26 26 27 29
21 22 22 22 25 27 27 28 29 28 28 31 33 34 34 37 38 38 39 41 42 44 45 39 37 35 35 34 39 35 33 30 28 26 26 31 30 29
21 22 21 22 25 28 30 31 31 30 30 33 33 33 34 37 40 39 39 41 43 44 45 44 44 46 44 36 14 23 28 24 25 27 29 35 34 28
19 20 21 23 26 28 30 31 33 32 33 33 32 32 33 36 39 40 41 42 44 44 44 43 43 38 38 43 46 23 20 34 30 30 28 29 32 29
18 21 22 23 27 30 32 33 34 34 34 32 32 31 32 36 40 39 40 43 45 45 46 44 43 41 37 42 46 42 28 33 31 31 32 34 29 27
19 21 22 25 28 31 33 34 34 34 32 32 32 31 33 37 38 37 39 41 43 43 45 46 45 43 41 38 36 40 33 23 21 25 32 32 25 25
22 23 24 27 31 33 34 35 34 32 32 32 32 32 35 36 35 35 37 42 44 43 44 46 46 45 42 39 40 42 39 31 22 22 26 27 19 12
24 25 26 30 33 33 34 34 32 32 31 31 32 33 34 35 32 33 36 40 42 43 44 47 46 45 43 41 40 40 38 32 26 24 15 24 25 29
Wind_Direction
356 353 352 342 342 337 336 329 329 321 323 325 325 326 331 335 340 339 337 334 335 327 322 310 291 287 290 288 275 264 260 255 255 248 238 234 237 241
355 350 344 342 341 335 332 329 322 313 298 309 313 323 330 333 337 338 335 334 333 332 325 318 305 288 285 285 284 272 265 259 254 254 247 237 234 235
349 344 345 341 338 336 335 332 325 318 308 311 317 326 330 333 335 335 335 334 333 331 326 320 313 296 283 282 281 280 267 264 256 253 250 244 240 238
344 342 343 339 337 336 337 333 326 322 315 316 324 330 330 330 332 333 333 330 329 331 326 320 313 305 290 281 280 278 273 264 260 255 251 248 242 240
341 340 343 339 337 337 339 334 326 325 324 324 322 325 326 332 332 330 328 329 327 327 322 320 313 308 296 282 279 278 277 273 269 258 253 248 245 242
339 340 340 339 336 337 337 335 332 332 327 321 323 324 328 333 327 328 325 327 325 325 325 321 318 314 307 296 286 282 280 275 274 261 257 251 245 243
334 335 337 335 336 337 336 334 334 318 323 324 322 324 330 323 327 326 323 324 323 326 325 317 317 316 311 302 291 281 279 276 275 264 255 253 247 243
332 329 333 333 335 335 332 326 318 325 322 320 320 323 318 321 325 324 320 319 317 323 316 314 317 314 313 307 299 292 285 283 277 268 251 247 245 243
328 323 329 334 333 332 331 320 317 319 316 315 317 315 317 324 321 318 313 312 308 313 314 310 315 311 312 307 301 294 290 280 272 266 256 248 245 244
324 324 329 332 331 339 322 309 318 324 321 321 317 319 318 316 312 307 309 307 308 313 316 304 317 313 314 309 306 299 286 275 268 270 263 248 245 247
319 325 329 329 331 332 316 316 325 327 323 324 321 318 316 319 319 315 318 320 316 316 314 315 317 312 312 310 315 295 274 262 276 289 273 253 246 248
317 326 330 329 332 331 320 323 325 331 319 321 324 323 321 323 328 327 325 319 317 315 313 315 316 315 312 312 297 296 293 291 291 284 271 256 252 257
320 327 330 333 332 327 323 325 327 311 313 321 326 329 328 329 332 330 328 322 317 307 314 311 307 308 294 297 301 304 305 303 301 293 282 265 248 252
321 329 332 332 330 329 326 324 322 318 318 325 329 331 331 332 333 330 328 325 320 313 319 321 305 301 300 296 295 303 302 300 299 296 290 272 246 246
324 330 328 330 332 331 330 330 327 327 327 329 331 331 330 332 332 332 331 330 326 328 328 327 318 312 302 296 295 299 303 302 298 300 293 275 259 251
325 329 327 328 331 333 334 336 335 334 332 330 329 329 330 332 334 337 336 336 334 333 335 336 333 324 314 310 301 297 297 286 297 294 290 271 272 250
326 325 326 331 337 339 339 339 338 336 335 333 331 330 329 332 334 338 338 339 336 335 335 339 339 335 328 311 303 301 301 300 299 301 298 287 274 254
320 326 333 338 340 339 338 337 338 336 334 332 329 329 328 332 334 336 339 340 337 337 335 339 342 342 338 330 321 308 300 302 305 292 280 281 279 252
324 330 334 336 336 336 335 334 333 333 331 330 327 327 327 331 334 335 338 340 338 338 336 339 338 331 323 316 322 329 304 311 310 299 294 289 284 258
324 328 330 329 331 330 331 331 330 330 330 330 328 327 329 331 332 334 336 339 339 339 337 340 339 333 318 310 309 323 335 311 308 303 295 291 281 255
322 322 323 324 326 326 327 328 328 328 328 327 328 328 329 329 330 332 334 338 340 339 334 337 340 342 335 333 314 320 331 337 317 296 289 286 273 258
318 318 319 321 322 324 325 326 326 327 327 327 327 327 329 330 330 331 334 337 338 338 336 337 341 343 343 335 324 325 333 338 333 306 279 262 240 236
315 314 315 318 321 322 323 324 325 326 326 325 326 327 329 331 332 332 334 336 338 339 341 338 341 345 343 340 334 332 337 342 337 327 298 252 239 234